TimeCDT,TemperatureF,Dew PointF,Humidity,Sea Level PressureIn,VisibilityMPH,Wind Direction,Wind SpeedMPH,Gust SpeedMPH,PrecipitationIn,Events,Conditions,WindDirDegrees,DateUTC
12:53 AM,55.9,35.1,45,29.81,10.0,South,9.2,-,N/A,,Clear,180,2013-10-28 05:53:00
1:53 AM,48.0,35.1,61,29.84,10.0,NNE,10.4,-,N/A,,Clear,30,2013-10-28 06:53:00
2:53 AM,46.9,35.1,63,29.86,10.0,NE,11.5,-,N/A,,Clear,50,2013-10-28 07:53:00
3:53 AM,46.0,36.0,68,29.88,10.0,ENE,13.8,-,N/A,,Clear,60,2013-10-28 08:53:00
4:53 AM,44.1,35.1,71,29.90,10.0,NE,16.1,-,N/A,,Clear,50,2013-10-28 09:53:00
5:53 AM,41.0,34.0,76,29.94,10.0,NE,15.0,-,N/A,,Clear,50,2013-10-28 10:53:00
6:53 AM,39.9,33.1,77,29.97,10.0,NE,16.1,-,N/A,,Clear,50,2013-10-28 11:53:00
7:53 AM,37.9,32.0,79,30.00,10.0,NE,17.3,-,N/A,,Clear,50,2013-10-28 12:53:00
8:53 AM,37.9,32.0,79,30.05,10.0,NE,16.1,-,N/A,,Clear,40,2013-10-28 13:53:00
9:36 AM,37.4,30.2,75,30.08,10.0,NE,16.1,-,N/A,,Mostly Cloudy,40,2013-10-28 14:36:00
9:53 AM,39.0,30.9,73,30.09,10.0,ENE,20.7,-,N/A,,Overcast,60,2013-10-28 14:53:00
10:53 AM,39.0,30.9,73,30.07,10.0,ENE,21.9,-,N/A,,Overcast,60,2013-10-28 15:53:00
11:53 AM,41.0,32.0,70,30.07,10.0,ENE,20.7,-,N/A,,Overcast,60,2013-10-28 16:53:00
12:53 PM,44.1,32.0,63,30.06,10.0,ENE,18.4,-,N/A,,Scattered Clouds,60,2013-10-28 17:53:00
1:18 PM,44.6,32.0,61,30.06,10.0,NE,16.1,-,N/A,,Mostly Cloudy,50,2013-10-28 18:18:00
1:53 PM,46.0,33.1,61,30.07,10.0,NE,15.0,21.9,N/A,,Mostly Cloudy,50,2013-10-28 18:53:00
2:53 PM,46.0,33.1,61,30.06,10.0,NE,12.7,-,N/A,,Overcast,50,2013-10-28 19:53:00
3:53 PM,46.0,33.1,61,30.06,10.0,ENE,13.8,-,N/A,,Overcast,70,2013-10-28 20:53:00
4:51 PM,46.4,33.8,62,30.05,10.0,NE,12.7,-,N/A,,Overcast,50,2013-10-28 21:51:00
4:53 PM,46.0,34.0,63,30.07,10.0,NE,15.0,-,N/A,,Overcast,50,2013-10-28 21:53:00
5:08 PM,46.4,33.8,62,30.04,10.0,NE,17.3,-,N/A,,Overcast,50,2013-10-28 22:08:00
5:53 PM,46.0,34.0,63,30.08,10.0,NE,17.3,-,N/A,,Overcast,50,2013-10-28 22:53:00
6:53 PM,45.0,35.1,68,30.10,10.0,North,-9999.0,-,N/A,,Overcast,0,2013-10-28 23:53:00
7:53 PM,44.1,37.0,76,30.11,9.0,North,-9999.0,-,N/A,,Overcast,0,2013-10-29 00:53:00
8:53 PM,43.0,37.0,80,30.13,8.0,NE,17.3,-,N/A,,Overcast,40,2013-10-29 01:53:00
9:20 PM,42.8,37.4,81,30.09,3.0,NE,17.3,-,N/A,,Overcast,50,2013-10-29 02:20:00
9:28 PM,41.0,37.4,87,30.09,2.0,NE,16.1,23.0,N/A,,Overcast,50,2013-10-29 02:28:00
9:53 PM,41.0,37.9,89,30.12,2.0,NE,12.7,-,N/A,,Overcast,40,2013-10-29 02:53:00
10:01 PM,41.0,39.2,93,30.08,2.0,NE,12.7,-,N/A,,Overcast,40,2013-10-29 03:01:00
10:14 PM,39.2,39.2,100,30.08,1.8,NE,13.8,-,N/A,,Overcast,40,2013-10-29 03:14:00
10:28 PM,39.2,37.4,93,30.08,1.8,NE,16.1,-,N/A,,Overcast,40,2013-10-29 03:28:00
10:53 PM,39.9,37.9,93,30.12,1.5,NE,12.7,-,N/A,,Overcast,40,2013-10-29 03:53:00
11:53 PM,39.0,37.9,96,30.10,1.8,NE,12.7,-,N/A,,Overcast,50,2013-10-29 04:53:00